�N����,����,�~����,�C��,���x,�C��,����,���ϕ���,�ő�u�ԕ���,�ő厞����,���˗�,�I�_���x,�n�����x,�ő啗���N��,DTYPE
"22/07/01","00:10",0.0,26.8,80.8,1009.0,340.9,2.0,3.2,343.4,0.00,23.3,25.9,"00:08:24",1
"22/07/01","00:20",0.0,26.6,81.0,1008.8,341.8,1.8,3.7,342.6,0.00,23.1,25.7,"00:11:04",1
"22/07/01","00:30",0.0,26.5,81.5,1008.8,348.2,1.8,4.0,337.1,0.00,23.1,25.7,"00:20:32",1
"22/07/01","00:40",0.0,26.3,82.2,1008.8,334.0,2.3,4.0,331.0,0.00,23.1,25.9,"00:36:56",1
"22/07/01","00:50",0.0,26.3,82.3,1008.8,336.3,2.3,4.8,347.8,0.00,23.1,25.7,"00:48:48",1
"22/07/01","01:00",0.0,26.2,82.2,1009.0,337.8,2.1,3.2,352.5,0.00,23.0,25.6,"00:54:32",1
"22/07/01","01:10",0.0,26.1,82.4,1008.8,340.2,2.3,3.6,318.2,0.00,22.9,25.7,"01:08:24",1
"22/07/01","01:20",0.0,26.1,82.5,1008.8,332.7,2.0,3.5,334.8,0.00,22.9,25.5,"01:17:44",1
"22/07/01","01:30",0.0,26.0,82.7,1008.8,326.2,2.3,4.8,329.5,0.00,22.9,25.4,"01:24:16",1
"22/07/01","01:40",0.0,25.9,82.9,1008.8,323.0,2.3,4.3,336.2,0.00,22.8,25.5,"01:34:32",1
"22/07/01","01:50",0.0,25.9,83.0,1008.8,339.7,2.5,4.5,346.2,0.00,22.8,25.6,"01:49:12",1
"22/07/01","02:00",0.0,25.8,83.1,1008.8,337.9,2.3,4.0,338.6,0.00,22.8,25.3,"01:51:44",1
"22/07/01","02:10",0.0,25.8,83.1,1009.0,336.4,2.3,4.2,355.5,0.00,22.8,25.6,"02:06:32",1
"22/07/01","02:20",0.0,25.8,83.0,1008.8,327.7,2.5,4.5,332.9,0.00,22.7,25.3,"02:12:40",1
"22/07/01","02:30",0.0,25.6,83.1,1008.8,329.4,2.3,4.4,318.7,0.00,22.6,25.4,"02:24:48",1
"22/07/01","02:40",0.0,25.5,83.4,1008.8,332.3,2.3,3.9,346.4,0.00,22.5,25.2,"02:36:24",1
"22/07/01","02:50",0.0,25.4,83.6,1009.0,333.6,2.6,4.2,350.5,0.00,22.5,25.4,"02:45:52",1
"22/07/01","03:00",0.0,25.2,83.8,1009.0,330.5,2.5,4.3,334.5,0.00,22.3,25.2,"02:52:48",1
"22/07/01","03:10",0.0,25.1,83.9,1009.3,341.9,2.1,3.7,350.8,0.00,22.2,25.4,"03:03:12",1
"22/07/01","03:20",0.0,25.0,84.0,1009.5,344.2,1.8,3.7,314.0,0.00,22.1,25.2,"03:12:48",1
"22/07/01","03:30",0.0,24.9,84.3,1009.5,341.5,1.7,3.5,351.3,0.00,22.1,25.1,"03:21:04",1
"22/07/01","03:40",0.0,24.8,84.5,1009.5,342.9,1.7,2.8,331.8,0.00,22.0,25.1,"03:30:32",1
"22/07/01","03:50",0.0,24.7,84.9,1009.3,344.3,1.3,2.4,351.3,0.00,22.0,25.2,"03:42:40",1
"22/07/01","04:00",0.0,24.6,85.1,1009.7,330.4,2.0,3.4,344.5,0.00,22.0,25.0,"03:56:56",1
"22/07/01","04:10",0.0,24.6,85.1,1009.7,345.2,1.7,3.4,345.7,0.00,22.0,25.0,"04:08:00",1
"22/07/01","04:20",0.0,24.5,85.3,1010.0,343.6,2.0,3.6,343.4,0.00,21.9,25.0,"04:16:24",1
"22/07/01","04:30",0.0,24.5,85.2,1009.5,339.4,2.2,4.0,352.6,0.00,21.9,24.8,"04:26:16",1
"22/07/01","04:40",0.0,24.5,85.2,1010.0,339.1,2.0,4.1,347.9,0.00,21.9,25.0,"04:33:44",1
"22/07/01","04:50",0.0,24.3,85.5,1010.0,341.1,1.6,2.6,333.2,0.00,21.8,25.0,"04:48:32",1
"22/07/01","05:00",0.0,24.3,85.8,1010.0,346.2,1.6,2.9,329.4,0.00,21.8,24.7,"04:50:32",1
"22/07/01","05:10",0.0,24.1,86.2,1009.7,346.1,1.7,3.1,351.4,0.00,21.7,24.9,"05:05:04",1
"22/07/01","05:20",0.0,23.9,86.6,1010.2,351.5,1.8,3.6,349.9,0.00,21.6,25.0,"05:19:04",1
"22/07/01","05:30",0.0,23.9,86.9,1010.0,341.7,1.8,3.2,337.0,0.00,21.6,24.8,"05:21:36",1
"22/07/01","05:40",0.0,23.9,87.0,1010.4,341.7,1.7,2.8,346.4,0.00,21.6,24.8,"05:31:44",1
"22/07/01","05:50",0.0,23.9,87.1,1010.0,341.8,1.6,2.5,337.2,0.00,21.7,24.7,"05:43:52",1
"22/07/01","06:00",0.0,24.0,87.0,1010.2,340.3,1.7,3.1,305.8,0.00,21.7,24.7,"05:53:44",1
"22/07/01","06:10",0.0,24.2,87.0,1010.2,339.4,2.3,3.9,334.8,0.00,21.9,24.8,"06:05:28",1
"22/07/01","06:20",0.0,24.5,86.4,1010.4,341.0,2.7,5.2,336.3,0.01,22.1,24.7,"06:14:08",1
"22/07/01","06:30",0.0,24.8,85.9,1010.7,347.3,2.2,3.3,349.5,0.02,22.3,24.6,"06:22:32",1
"22/07/01","06:40",0.0,25.1,85.1,1010.4,337.1,2.2,3.9,346.0,0.04,22.5,24.7,"06:32:00",1
"22/07/01","06:50",0.0,25.4,84.1,1010.4,332.2,2.1,3.3,328.0,0.05,22.6,24.6,"06:48:32",1
"22/07/01","07:00",0.0,25.7,83.1,1010.4,334.0,1.7,3.3,347.8,0.07,22.7,24.7,"06:56:48",1
"22/07/01","07:10",0.0,26.1,81.6,1010.4,336.3,2.0,2.9,328.8,0.09,22.7,24.7,"07:00:24",1
"22/07/01","07:20",0.0,26.9,80.1,1010.4,346.5,1.2,2.8,347.3,0.11,23.2,24.4,"07:10:16",1
"22/07/01","07:30",0.0,27.2,77.9,1010.4,339.5,1.5,2.6,345.9,0.14,23.0,24.7,"07:23:52",1
"22/07/01","07:40",0.0,27.5,76.1,1010.4,337.1,1.7,3.1,352.8,0.16,23.0,24.7,"07:34:00",1
"22/07/01","07:50",0.0,28.0,74.8,1010.2,344.9,1.3,2.6,341.4,0.18,23.1,24.6,"07:41:52",1
"22/07/01","08:00",0.0,28.5,72.2,1009.7,353.5,1.1,2.7,353.7,0.21,23.0,24.6,"07:55:36",1
"22/07/01","08:10",0.0,29.2,70.5,1010.0,348.8,0.7,1.8,345.2,0.23,23.3,24.5,"08:04:24",1
"22/07/01","08:20",0.0,29.7,68.5,1010.4,325.1,0.7,1.6,352.3,0.26,23.3,24.4,"08:13:12",1
"22/07/01","08:30",0.0,30.4,66.0,1010.4,45.6,0.7,1.8,354.5,0.28,23.4,24.7,"08:25:04",1
"22/07/01","08:40",0.0,31.2,63.3,1011.2,84.3,0.6,1.1,115.8,0.31,23.4,24.6,"08:34:32",1
"22/07/01","08:50",0.0,31.9,62.9,1011.2,93.3,0.7,1.4,48.9,0.33,24.0,24.8,"08:41:20",1
"22/07/01","09:00",0.0,32.0,62.2,1011.4,124.0,0.8,1.4,134.3,0.35,23.9,25.0,"08:53:52",1
"22/07/01","09:10",0.0,32.3,60.6,1011.6,137.7,0.7,2.2,202.0,0.37,23.7,24.9,"09:09:12",1
"22/07/01","09:20",0.0,32.6,60.6,1012.3,191.4,0.5,2.2,181.5,0.39,24.0,25.0,"09:10:32",1
"22/07/01","09:30",0.0,32.6,57.6,1012.1,191.0,0.7,1.7,216.8,0.41,23.2,24.9,"09:24:56",1
"22/07/01","09:40",0.0,32.8,55.9,1012.1,341.4,0.7,1.8,16.9,0.43,22.9,25.0,"09:36:32",1
"22/07/01","09:50",0.0,33.5,54.5,1012.1,107.2,0.6,1.6,66.5,0.45,23.1,24.9,"09:48:24",1
"22/07/01","10:00",0.0,33.5,52.5,1012.6,143.3,1.1,2.8,150.8,0.47,22.5,24.9,"09:58:24",1
"22/07/01","10:10",0.0,33.7,53.5,1012.8,171.7,1.0,2.5,229.6,0.48,23.0,25.1,"10:02:08",1
"22/07/01","10:20",0.0,33.5,50.8,1012.6,149.2,1.3,3.4,209.0,0.50,21.9,25.1,"10:15:20",1
"22/07/01","10:30",0.0,34.3,49.5,1013.0,65.0,0.8,1.9,41.1,0.51,22.3,25.1,"10:26:08",1
"22/07/01","10:40",0.0,34.6,50.6,1012.6,159.9,1.0,2.6,187.2,0.52,22.9,25.2,"10:31:28",1
"22/07/01","10:50",0.0,34.6,49.6,1012.6,191.5,1.0,2.5,223.6,0.53,22.6,25.2,"10:40:02",1
"22/07/01","11:00",0.0,34.2,51.3,1012.3,185.8,1.5,3.2,212.2,0.54,22.8,25.4,"10:50:08",1
"22/07/01","11:10",0.0,34.3,50.4,1012.6,176.6,1.6,2.9,205.2,0.55,22.6,25.5,"11:04:08",1
"22/07/01","11:20",0.0,34.6,49.2,1012.1,247.6,0.8,2.2,191.9,0.56,22.4,25.7,"11:10:16",1
"22/07/01","11:30",0.0,35.2,49.3,1012.3,140.5,0.8,1.9,139.6,0.57,23.0,25.6,"11:23:36",1
"22/07/01","11:40",0.0,36.0,50.9,1012.3,149.2,0.6,1.7,35.4,0.58,24.3,25.6,"11:32:56",1
"22/07/01","11:50",0.0,35.7,47.7,1012.3,238.2,1.1,2.4,242.8,0.58,22.9,25.9,"11:47:04",1
"22/07/01","12:00",0.0,35.3,47.3,1012.3,240.6,1.2,4.9,233.4,0.59,22.4,25.9,"11:50:56",1
"22/07/01","12:10",0.0,35.7,48.5,1011.9,208.5,1.3,4.0,231.2,0.59,23.2,25.9,"12:02:24",1
"22/07/01","12:20",0.0,35.4,48.4,1011.9,209.1,1.7,4.1,116.3,0.60,22.9,26.0,"12:14:56",1
"22/07/01","12:30",0.0,36.1,48.8,1011.6,171.5,1.7,3.1,150.7,0.59,23.7,26.1,"12:20:02",1
"22/07/01","12:40",0.0,36.2,49.2,1011.6,144.5,1.5,3.6,126.7,0.59,23.9,26.2,"12:38:00",1
"22/07/01","12:50",0.0,36.6,48.6,1011.4,128.4,1.2,2.8,104.3,0.59,24.0,26.5,"12:49:12",1
"22/07/01","13:00",0.0,37.0,46.5,1011.6,137.1,1.1,2.1,128.3,0.59,23.7,26.4,"12:50:16",1
"22/07/01","13:10",0.0,36.8,43.9,1011.6,90.2,1.1,3.9,336.0,0.59,22.5,26.4,"13:05:44",1
"22/07/01","13:20",0.0,37.3,44.0,1011.6,162.0,0.8,2.2,3.3,0.59,23.0,26.3,"13:10:08",1
"22/07/01","13:30",0.0,37.6,42.8,1011.9,255.6,0.8,2.5,229.2,0.57,22.8,26.5,"13:23:44",1
"22/07/01","13:40",0.0,37.9,43.4,1011.6,155.0,0.8,2.1,114.9,0.58,23.3,26.5,"13:31:36",1
"22/07/01","13:50",0.0,37.8,42.4,1011.2,283.1,1.0,2.4,215.4,0.57,22.9,26.4,"13:41:12",1
"22/07/01","14:00",0.0,38.0,42.1,1011.6,354.0,1.0,2.2,352.0,0.51,22.9,26.6,"13:50:48",1
"22/07/01","14:10",0.0,38.2,43.0,1011.4,129.6,0.8,1.7,359.9,0.53,23.5,26.7,"14:01:12",1
"22/07/01","14:20",0.0,38.9,41.2,1011.4,128.4,0.6,1.9,140.8,0.57,23.4,26.7,"14:11:20",1
"22/07/01","14:30",0.0,39.1,40.8,1011.9,150.6,0.8,2.8,0.0,0.58,23.4,26.9,"14:21:20",1
"22/07/01","14:40",0.0,38.6,38.0,1011.2,52.4,1.5,3.4,196.7,0.52,21.8,26.7,"14:34:00",1
"22/07/01","14:50",0.0,37.9,39.5,1010.9,133.4,0.6,1.6,339.7,0.25,21.8,27.0,"14:40:08",1
"22/07/01","15:00",0.0,37.0,43.5,1010.9,42.7,0.8,1.9,104.9,0.17,22.6,27.0,"14:57:52",1
"22/07/01","15:10",0.0,36.4,45.7,1010.2,56.6,0.8,2.5,356.2,0.11,22.8,27.1,"15:00:48",1
"22/07/01","15:20",0.0,36.1,49.7,1010.0,25.5,0.7,2.1,14.5,0.10,24.0,26.8,"15:16:24",1
"22/07/01","15:30",0.0,37.3,43.2,1010.0,357.9,0.5,1.9,309.6,0.43,22.7,27.1,"15:29:12",1
"22/07/01","15:40",0.0,37.7,40.0,1010.0,284.4,1.1,2.9,345.3,0.44,21.8,26.9,"15:37:36",1
"22/07/01","15:50",0.0,37.9,40.7,1010.2,320.1,1.1,2.7,0.8,0.41,22.3,27.2,"15:47:04",1
"22/07/01","16:00",0.0,38.5,41.8,1010.2,8.7,1.0,2.5,353.9,0.40,23.3,27.2,"15:51:36",1
"22/07/01","16:10",0.0,38.1,40.1,1010.0,170.0,1.2,3.5,218.0,0.38,22.2,27.3,"16:00:02",1
"22/07/01","16:20",0.0,37.8,41.8,1010.0,168.5,1.5,3.1,228.3,0.36,22.6,27.2,"16:10:16",1
"22/07/01","16:30",0.0,38.2,43.8,1010.0,138.5,1.0,2.2,122.4,0.34,23.8,27.0,"16:20:02",1
"22/07/01","16:40",0.0,37.7,43.8,1010.0,125.5,1.1,3.1,119.7,0.31,23.3,27.3,"16:31:52",1
"22/07/01","16:50",0.0,37.6,42.0,1010.0,89.7,0.8,1.9,123.4,0.22,22.5,27.5,"16:44:32",1
"22/07/01","17:00",0.0,36.1,45.4,1009.3,141.3,0.8,2.5,127.4,0.09,22.5,27.3,"16:54:16",1
"22/07/01","17:10",0.0,36.5,46.3,1009.3,131.5,1.2,2.7,132.0,0.21,23.2,27.3,"17:07:28",1
"22/07/01","17:20",0.0,36.4,45.1,1009.3,116.4,1.0,2.2,159.0,0.11,22.6,27.3,"17:10:32",1
"22/07/01","17:30",0.0,35.2,46.3,1009.3,130.5,1.1,2.1,118.9,0.05,22.0,27.4,"17:25:28",1
"22/07/01","17:40",0.0,35.4,47.1,1008.8,135.4,0.7,2.0,113.9,0.04,22.4,27.4,"17:39:28",1
"22/07/01","17:50",0.0,35.7,47.8,1009.0,89.1,0.5,1.6,69.0,0.03,23.0,27.4,"17:46:08",1
"22/07/01","18:00",0.0,35.9,43.6,1009.0,107.3,1.0,3.2,113.0,0.03,21.6,27.5,"17:58:08",1
"22/07/01","18:10",0.0,36.2,43.1,1009.0,99.1,0.7,2.4,95.6,0.02,21.7,27.4,"18:05:36",1
"22/07/01","18:20",0.0,36.2,42.6,1009.0,40.4,0.7,1.7,35.9,0.02,21.5,27.6,"18:18:08",1
"22/07/01","18:30",0.0,36.1,41.6,1009.0,41.2,0.6,1.7,60.0,0.02,21.0,27.3,"18:26:32",1
"22/07/01","18:40",0.0,35.8,42.1,1009.3,45.3,0.6,1.7,92.6,0.02,21.0,27.4,"18:33:20",1
"22/07/01","18:50",0.0,35.7,44.7,1009.0,351.6,1.0,1.9,353.4,0.03,21.9,27.4,"18:42:24",1
"22/07/01","19:00",0.0,35.0,38.2,1009.0,1.6,1.1,2.1,22.6,0.02,18.7,27.4,"18:59:04",1
"22/07/01","19:10",0.0,34.7,42.9,1009.0,351.9,0.7,1.9,1.2,0.00,20.3,27.2,"19:02:24",1
"22/07/01","19:20",0.0,33.0,47.3,1008.6,5.8,0.7,1.7,326.9,0.00,20.3,27.4,"19:14:00",1
"22/07/01","19:30",0.0,32.2,47.5,1008.3,279.2,0.2,0.9,304.0,0.00,19.7,27.3,"19:28:40",1
"22/07/01","19:40",0.0,31.5,48.3,1007.4,277.1,0.6,1.4,310.9,0.00,19.3,27.2,"19:37:36",1
"22/07/01","19:50",0.0,31.2,48.9,1007.4,324.0,1.0,1.6,335.6,0.00,19.2,27.1,"19:45:20",1
"22/07/01","20:00",0.0,30.8,50.1,1007.1,327.8,0.7,1.8,317.5,0.00,19.3,27.2,"19:50:02",1
"22/07/01","20:10",0.0,30.5,50.5,1007.1,325.0,1.1,2.2,292.0,0.00,19.1,27.0,"20:06:56",1
"22/07/01","20:20",0.0,30.4,50.3,1007.1,285.1,1.0,1.8,255.0,0.00,18.9,27.1,"20:11:36",1
"22/07/01","20:30",0.0,30.3,50.8,1007.1,318.0,1.0,2.5,333.0,0.00,19.0,26.9,"20:26:40",1
"22/07/01","20:40",0.0,29.6,55.7,1006.7,349.0,1.3,2.5,5.0,0.00,19.8,26.9,"20:34:56",1
"22/07/01","20:50",0.0,29.0,56.8,1006.9,303.3,1.2,2.5,350.7,0.00,19.6,27.0,"20:49:52",1
"22/07/01","21:00",0.0,29.0,56.4,1007.6,312.8,1.8,2.9,333.5,0.00,19.5,26.8,"20:53:12",1
"22/07/01","21:10",0.0,29.0,56.6,1007.4,320.6,1.6,3.1,302.2,0.00,19.5,26.7,"21:00:08",1
"22/07/01","21:20",0.0,28.6,58.5,1007.8,331.8,1.0,2.1,328.9,0.00,19.7,26.6,"21:16:56",1
"22/07/01","21:30",0.0,28.4,58.5,1008.1,330.8,1.1,2.5,338.9,0.00,19.5,26.8,"21:23:28",1
"22/07/01","21:40",0.0,28.1,59.3,1007.8,283.6,0.3,0.9,317.0,0.00,19.5,26.4,"21:35:12",1
"22/07/01","21:50",0.0,27.8,60.5,1008.3,293.0,0.7,1.7,341.2,0.00,19.5,26.4,"21:49:28",1
"22/07/01","22:00",0.0,27.2,64.5,1008.8,327.0,1.0,1.7,349.4,0.00,20.0,26.5,"21:52:16",1
"22/07/01","22:10",0.0,27.1,64.1,1008.8,300.6,1.1,2.4,345.8,0.00,19.8,26.3,"22:05:12",1
"22/07/01","22:20",0.0,27.4,63.4,1008.8,334.9,1.2,2.8,341.7,0.00,19.9,26.4,"22:17:52",1
"22/07/01","22:30",0.0,27.4,62.9,1009.0,314.0,1.1,2.1,317.4,0.00,19.7,26.2,"22:22:00",1
"22/07/01","22:40",0.0,27.2,63.3,1009.3,297.4,0.5,1.7,328.5,0.00,19.7,26.4,"22:32:08",1
"22/07/01","22:50",0.0,27.1,63.9,1009.0,308.1,0.8,1.8,316.8,0.00,19.7,26.2,"22:47:20",1
"22/07/01","23:00",0.0,27.2,65.6,1008.8,339.7,1.0,1.4,348.8,0.00,20.2,26.2,"22:53:44",1
"22/07/01","23:10",0.0,26.8,67.6,1009.3,332.0,0.8,1.2,345.3,0.00,20.3,26.3,"23:03:12",1
"22/07/01","23:20",0.0,26.2,68.5,1008.8,291.9,0.7,1.3,318.2,0.00,20.0,26.3,"23:11:28",1
"22/07/01","23:30",0.0,26.3,68.8,1009.3,283.8,0.7,1.3,304.8,0.00,20.2,26.1,"23:27:04",1
"22/07/01","23:40",0.0,26.3,69.0,1009.3,311.7,1.1,1.7,334.3,0.00,20.2,26.0,"23:32:56",1
"22/07/01","23:50",0.0,26.1,69.2,1009.3,296.5,0.7,1.6,306.5,0.00,20.1,26.1,"23:42:32",1
"22/07/01","24:00",0.0,26.0,69.8,1009.3,314.6,1.0,1.6,309.1,0.00,20.1,25.9,"23:55:28",1
